NOAA 16 DEB, 41212

Orbit data source: Space-Track

NOAA 16 DEB, 41212 is space debris in SSO originally from a launch on Thu, 21 Sep 2000 UTC launched from the Air Force Western Test Range (AFWTR). Debris objects in space refer to the collection of defunct objects orbiting the Earth. Examples of debris include non-operational satellites, rocket bodies, and fragments generated from explosions, collisions, or faulty payload assembly.

Loading next visibility...
NOAA 16 DEB details
Identifier
41212, 2000-055DR
Orbit
SSO
Last TLE update17 hours ago
Origin
Flag of USNOAA (US)
ManufacturerUnknown
MissionSpacecraft
Bus & MotorUnknown
MassUnknown
Launch date (UTC)
2000-09-21 (24 years ago)
Launch vehicleUnknown
Launch site
Air Force Western Test Range (AFWTR)
Object type
Payload
Rocket body
Debris
Shape & HBRUnknown
Radar Cross SectionSmall (<0.1 m²)

Expand to show TLE details & history

TLE from 17 hours ago
0 NOAA 16 DEB
1 41212U 00055DR  24336.60149063  .00015300  00000-0  59655-2 0  9998
2 41212  98.9211  95.9842 0018379 158.1058 202.0912 14.29656248464541
Epoch: 2024-12-01T14:26Z
Definitive object data (Epoch: 2024-12-01T14:26:08.79Z)
Latitude-0.00005°
Longitude168.51023°
Altitude808.019 km
Speed7.443 km/s
True Right ascension06h 23m 56s
True Declination0° 00' 00"
Sunlit
Object was in full shadow at TLE epoch
Visualization TLE readout
Latitude29.94701°
Longitude-5.58257°
Altitude783.449 km
Speed7.472 km/s
Apparent Right ascension18h 18m 39s
Apparent Declination-2° 40' 43"
Sunlit
Object is in daylight
Visualization observer readout
Local Sidereal Time05:41:57
Azimuth345.058° N
Elevation-51.844°
Doppler factor1
Orbital elements
Apogee altitude803.21 km
Perigee altitude776.862 km
Semi-major axis7,168.173 km
Eccentricity0.0018379
Inclination98.9211°
RAAN95.9842°
Arg. of periapsis158.1058°
True anomaly202.01216°
Mean anomaly202.0912°
Eccentric anomaly202.05166°
Mean motion3.57627 °/min
BSTAR0.0059655
Orbital period100.66 mins
Loading maneuver chart data...
Loading historical data...
Loading historical data...
Loading historical data...
Loading historical data...
Loading historical data...
Loading historical data...
Loading historical data...

NOAA 16 DEB Visibility forecast

Observer location: undefined°, undefined

Span
Click to sort rows by Start time (UTC) header in descending order
Start Az.
Max El. time (UTC)
Max El. Az.
Max El.
End time (UTC)
End Az.
8 mins2024-12-02 09:01:48.138Z210.772° SW2024-12-02 09:05:48.138Z269.43° W24.772°2024-12-02 09:09:48.138Z321.173° NNW
8 mins2024-12-02 21:15:48.138Z8.147° NNE2024-12-02 21:18:48.138Z318.141° NNW43.854°2024-12-02 21:23:48.138Z201.475° SSW
5 mins2024-12-03 06:55:48.138Z88.871° E2024-12-03 06:57:48.138Z59.46° ENE18.804°2024-12-03 07:00:48.138Z21.613° NNE
|